CZ-6A DEB

Satellite information

Favourite Embed

Satellite Type and Status

DEBRISIN ORBIT

Key statistics

Satellite CZ-6A DEB at a glance.

Uptime

336

Days in orbit

Revolutions

≈ 14.5

Per day

Orbit

LEO

Low Earth Orbit

Inclination

89.0

Latest

Satellite identification and parameters

Extended collection of information and parameters for CZ-6A DEB.

Object identification

Identified? True

Debris? True

Object name: CZ-6A DEB

International designator: 2024-140QW

Object number (NORAD): 61152

Object ID (CCSDS): 61152

Country: PEOPLES REPUBLIC OF CHINA (PRC)

Current information (Y/N): Y

RCS size: SMALL

Orbital parameters

Period: 99.098 minutes

Inclination: 89.047 deg

SMA: 7093.646 km

Apoapsis: 798.588 km

Periapsis: 632.434 km

RAAN: 313.2015 deg

Eccentricy: 0.0117115

Argument of periapsis: 13.4151 deg

Mean anomaly: 347.0124 deg

Mean motion: 14.53109979 rev/day

Mean motion (dot): 0.00000739 rev/day2

B* drag term: 0.00015929 1/REarth

Two-line elements (TLE)

Creation date: July 8, 2025, 2:27 a.m.

Reference frame: TEME

Reference center: EARTH

Epoch: July 7, 2025, 6:31 p.m. UTC

TLE line 0: 0 CZ-6A DEB

TLE line 1: 1 61152U 24140QW 25188.77171469 .00000739 00000-0 15929-3 0 9990

TLE line 2: 2 61152 89.0470 313.2015 0117115 13.4151 347.0124 14.53109979 46437

Live tracking on map

Real-time ground track for satellite CZ-6A DEB.

In-orbit conjunctions

A list of the most updated potential collisions computed for object CZ-6A DEB.

Target Orbit TCA Probability of collision Miss distance Type
IRIDIUM 33 DEB LEO 2025-05-27 18:23:16 0.0008546702 14.0 (m) DEBRIS
CZ-6A DEB LEO 2025-05-17 09:06:59 0.0002103993 571.0 (m) DEBRIS
FENGYUN 1C DEB SSO 2025-03-02 21:18:22 0.0002431015 858.0 (m) DEBRIS
CZ-6A DEB LEO 2025-02-23 14:03:42 0.0001080088 604.0 (m) DEBRIS
CZ-6A DEB LEO 2024-11-22 16:48:52 0.0004515751 113.0 (m) DEBRIS

Associated space launch

18 Low Earth Orbit communication satellites with Ku, Q and V band payloads for the G60 constellation operated by Shanghai Spacecom Satellite Technology (SSST) with funding backed by the Shanghai local government. Initial constellation will consist of 1296 satellites by 2027 with long term plans to expand it to 12000 satellites.

CZ-6A DEB was lifted into orbit during the mission ‘Long March 6A | G60 Polar Group 01’, on board a Long March 6A space rocket.

The launch took place on Aug. 6, 2024, 6:42 a.m. from Launch Complex 9A.

For more information about the launch, click the button.

Launch to space Long March 6A | G60 Polar Group 01
Long March 6A | G60 Polar Group 01

Agency: N/A

Status: Launch Successful

Launch date: Aug. 6, 2024, 6:42 a.m. UTC

Rocket: Long March 6A

Launch pad: Launch Complex 9A

Location: Taiyuan Satellite Launch Center, People's Republic of China

...

Latest news about this satellite

News about space launch
Brightness of first Chinese broadband constellation satellites alarms astronomers

The first satellites of a Chinese broadband constellation are significantly brighter than those of Western systems, posing a new challenge for astronomers.

News about space launch
Chinese rocket stage breaks up into cloud of more than 700 pieces of space debris

HELSINKI — A Chinese Long March 6A rocket’s upper stage has fragmented into a cloud of over 700 pieces of space debris, adding to concerns about long-term orbital safety. China […]

News about space launch
China's Thousand Sails Megaconstellation Kicks Off with Dangerous Debris Field

China's Thousand Sails Megaconstellation Kicks Off with Dangerous Debris Field


Newsletter sign-up

Weekly statistics, charts and insights to help you stay on top of the space industry.